This is the latest recevied weather packets stored in our database for station/object KI5RAB. If no packets are shown the sender has not sent any weather packets the latest 10 day(s).
| Time | Temp. | Humidity | Pressure | Rain* | Wind** | Luminosity | Snow |
|---|---|---|---|---|---|---|---|
| 1778185206 | 20.56° C | 67% | 1018.7 hPa | 0 mm | - | 353 W/m² | - |
| 1778184902 | 21.11° C | 68% | 1018.3 hPa | 0 mm | - | 435 W/m² | - |
| 1778184598 | 20.56° C | 69% | 1018.3 hPa | 0 mm | - | 585 W/m² | - |
| 1778184294 | 19.44° C | 74% | 1018.3 hPa | 0 mm | - | 792 W/m² | - |
| 1778183989 | 19.44° C | 75% | 1018.9 hPa | 0 mm | - | 269 W/m² | - |
| 1778183687 | 18.89° C | 75% | 1019.3 hPa | 0 mm | - | 216 W/m² | - |
| 1778183385 | 18.89° C | 76% | 1019.5 hPa | 0 mm | - | 187 W/m² | - |
| 1778183081 | 18.89° C | 76% | 1018.8 hPa | 0 mm | - | 200 W/m² | - |
| 1778182777 | 18.89° C | 76% | 1019 hPa | 0 mm | - | 183 W/m² | - |
| 1778182474 | 19.44° C | 77% | 1018.6 hPa | 0 mm | - | 196 W/m² | - |
| 1778182171 | 19.44° C | 76% | 1019.6 hPa | 0 mm | - | 239 W/m² | - |
| 1778181867 | 18.89° C | 76% | 1019.3 hPa | 0 mm | - | 270 W/m² | - |
| 1778181564 | 18.89° C | 76% | 1019.1 hPa | 0 mm | - | 302 W/m² | - |
| 1778181260 | 18.89° C | 77% | 1019.5 hPa | 0 mm | - | 324 W/m² | - |
| 1778180957 | 18.33° C | 78% | 1019.1 hPa | 0 mm | - | 216 W/m² | - |
| 1778180655 | 18.89° C | 77% | 1019 hPa | 0 mm | - | 196 W/m² | - |
| 1778180354 | 18.33° C | 78% | 1018.8 hPa | 0 mm | - | 196 W/m² | - |
| 1778180050 | 18.33° C | 78% | 1018.7 hPa | 0 mm | - | 217 W/m² | - |
| 1778179747 | 18.33° C | 78% | 1018.7 hPa | 0 mm | - | 223 W/m² | - |
| 1778179445 | 18.33° C | 78% | 1019.1 hPa | 0 mm | - | 190 W/m² | - |
| 1778179142 | 18.33° C | 78% | 1019.4 hPa | 0 mm | - | 167 W/m² | - |
| 1778178839 | 18.89° C | 78% | 1019.4 hPa | 0 mm | - | 196 W/m² | - |
| 1778178536 | 18.89° C | 79% | 1019.6 hPa | 0 mm | - | 244 W/m² | - |
| 1778178232 | 18.33° C | 80% | 1020.2 hPa | 0 mm | - | 184 W/m² | - |
| 1778177928 | 18.33° C | 79% | 1020.3 hPa | 0 mm | - | 119 W/m² | - |
* Rain latest hour (hover to see other rain measurements)
** Current wind speed in m/s (hover to see current wind gust speed)